RADUGA-1 7 [-]

Last updated on Jan. 23, 2021, 7:21 a.m. UTC

1 28194U 04010A   21022.22618797  .00000091  00000-0  00000-0 0  9998
2 28194  11.3747  35.3789 0002612 290.0901 254.1432  1.00273029 61637
UTC
Height (km)
Latitude
Longitude
Inclination
Orbital Period
UTC large
Height (km)
Speed (km/s)
/
Latitude / Longitude
Inclination (degrees)
Orbital Period (minutes)
Azimuth
Elevation
Range (km)
Doppler Factor
iOS Compass Heading
iOS Angle

Next 30 passes for location: Hong Kong

Rise time Rise Azimuth (degrees) Set time Set Azimuth (degrees) Duration Max altitude (degrees)

No matching passes for this satellites